When you browse on this site, cookies collect data to enhance your experience and personalize the content and advertising you see.
Visit our Privacy Policy to learn more. By continuing to use the site, you agree to this use of cookies and data.
  • en France
  • Liste des pays
  • À 7 jours
  • Température de l'eau
  • Carte satellitaire
  • Carte météo
  • Widgets météo
  • user-avatar
    Se connecter

    Météo par heure à Sidi-bel-Abbès

    Ce jour, 23 Janvier, Mercredi

    Heure Température Précipitation Vent Pression Humidité
    00:00 +5°C° 0.8 mm 13 m/s 717 mmHg 89%
    01:00 +5°C° 2.5 mm 13 m/s 717 mmHg 90%
    02:00 +5°C° 2.5 mm 13 m/s 716 mmHg 91%
    03:00 +5°C° 2.5 mm 13 m/s 716 mmHg 92%
    04:00 +7°C° 2.2 mm 13 m/s 716 mmHg 91%
    05:00 +7°C° 2.2 mm 13 m/s 715 mmHg 90%
    06:00 +7°C° 2.2 mm 13 m/s 715 mmHg 89%
    07:00 +7°C° 1 mm 13 m/s 715 mmHg 88%
    08:00 +7°C° 1 mm 12 m/s 716 mmHg 87%
    09:00 +8°C° 1 mm 12 m/s 716 mmHg 85%
    10:00 +8°C° 0.1 mm 13 m/s 716 mmHg 84%
    11:00 +8°C° 0.1 mm 13 m/s 716 mmHg 82%
    12:00 +8°C° 0.1 mm 14 m/s 715 mmHg 81%
    13:00 +8°C° 0.1 mm 14 m/s 715 mmHg 81%
    14:00 +8°C° 0.1 mm 14 m/s 715 mmHg 82%
    15:00 +8°C° 0.1 mm 14 m/s 715 mmHg 82%
    16:00 +8°C° 0.2 mm 13 m/s 715 mmHg 83%
    17:00 +8°C° 0.2 mm 13 m/s 715 mmHg 85%
    18:00 +8°C° 0.2 mm 12 m/s 715 mmHg 86%
    19:00 +8°C° 0.3 mm 12 m/s 715 mmHg 87%
    20:00 +8°C° 0.3 mm 12 m/s 716 mmHg 87%
    21:00 +8°C° 0.3 mm 12 m/s 716 mmHg 88%
    22:00 +8°C° 0.3 mm 12 m/s 716 mmHg 88%
    23:00 +8°C° 0.3 mm 12 m/s 716 mmHg 89%

    Demain, 24 Janvier, Jeudi

    Heure Température Précipitation Vent Pression Humidité
    00:00 +8°C° 0.3 mm 12 m/s 716 mmHg 89%
    01:00 +8°C° 0.3 mm 11 m/s 716 mmHg 90%
    02:00 +8°C° 0.3 mm 11 m/s 715 mmHg 90%
    03:00 +8°C° 0.3 mm 11 m/s 715 mmHg 91%
    04:00 +8°C° 0.4 mm 11 m/s 715 mmHg 91%
    05:00 +8°C° 0.4 mm 10 m/s 715 mmHg 91%
    06:00 +8°C° 0.4 mm 10 m/s 715 mmHg 91%
    07:00 +8°C° 0.3 mm 10 m/s 715 mmHg 90%
    08:00 +8°C° 0.3 mm 10 m/s 715 mmHg 89%
    09:00 +8°C° 0.3 mm 10 m/s 716 mmHg 88%
    10:00 +8°C° 0.3 mm 10 m/s 716 mmHg 87%
    11:00 +9°C° 0.3 mm 10 m/s 716 mmHg 86%
    12:00 +9°C° 0.3 mm 11 m/s 716 mmHg 85%
    13:00 +9°C° 0.3 mm 10 m/s 716 mmHg 83%
    14:00 +11°C° 0.3 mm 10 m/s 715 mmHg 82%
    15:00 +11°C° 0.3 mm 10 m/s 715 mmHg 80%
    16:00 +10°C° 0.1 mm 9 m/s 715 mmHg 84%
    17:00 +10°C° 0.1 mm 8 m/s 716 mmHg 88%
    18:00 +9°C° 0.1 mm 7 m/s 716 mmHg 92%
    19:00 +9°C° 0.1 mm 6 m/s 716 mmHg 92%
    20:00 +9°C° 0.1 mm 6 m/s 717 mmHg 93%
    21:00 +8°C° 0.1 mm 5 m/s 717 mmHg 94%
    22:00 +8°C° 0.1 mm 5 m/s 717 mmHg 94%
    23:00 +8°C° 0.1 mm 5 m/s 717 mmHg 94%

    Après-demain, 25 Janvier, Vendredi

    Heure Température Précipitation Vent Pression Humidité
    00:00 +8°C° 0.1 mm 5 m/s 717 mmHg 94%
    01:00 +8°C° 0.2 mm 6 m/s 717 mmHg 93%
    02:00 +8°C° 0.2 mm 6 m/s 717 mmHg 91%
    03:00 +9°C° 0.2 mm 6 m/s 717 mmHg 90%
    04:00 +8°C° 0.1 mm 5 m/s 718 mmHg 89%
    05:00 +8°C° 0.1 mm 4 m/s 718 mmHg 88%
    06:00 +9°C° 0.1 mm 3 m/s 718 mmHg 87%
    07:00 +10°C° 0.1 mm 3 m/s 719 mmHg 82%
    08:00 +10°C° 0.1 mm 3 m/s 719 mmHg 77%
    09:00 +11°C° 0.1 mm 4 m/s 720 mmHg 73%
    10:00 +12°C° 0 mm 4 m/s 720 mmHg 67%
    11:00 +13°C° 0 mm 5 m/s 720 mmHg 61%
    12:00 +13°C° 0 mm 5 m/s 720 mmHg 55%
    13:00 +14°C° 0 mm 5 m/s 720 mmHg 53%
    14:00 +14°C° 0 mm 5 m/s 720 mmHg 51%
    15:00 +14°C° 0 mm 5 m/s 720 mmHg 48%
    16:00 +13°C° 0 mm 4 m/s 719 mmHg 54%
    17:00 +12°C° 0 mm 3 m/s 719 mmHg 60%
    18:00 +12°C° 0 mm 2 m/s 719 mmHg 66%
    19:00 +10°C° 0 mm 2 m/s 719 mmHg 67%
    20:00 +10°C° 0 mm 2 m/s 720 mmHg 67%
    21:00 +10°C° 0 mm 2 m/s 720 mmHg 67%
    22:00 +10°C° 0 mm 2 m/s 720 mmHg 65%
    23:00 +9°C° 0 mm 2 m/s 720 mmHg 64%

    26 Janvier, Samedi

    Heure Température Précipitation Vent Pression Humidité
    00:00 +9°C° 0 mm 2 m/s 720 mmHg 62%
    01:00 +9°C° 0 mm 2 m/s 720 mmHg 65%
    02:00 +9°C° 0 mm 2 m/s 719 mmHg 68%
    03:00 +8°C° 0 mm 3 m/s 719 mmHg 71%
    04:00 +8°C° 0 mm 3 m/s 719 mmHg 76%
    05:00 +8°C° 0 mm 2 m/s 719 mmHg 81%
    06:00 +8°C° 0 mm 2 m/s 720 mmHg 86%
    07:00 +9°C° 0 mm 2 m/s 720 mmHg 82%
    08:00 +10°C° 0 mm 2 m/s 721 mmHg 78%
    09:00 +12°C° 0 mm 2 m/s 721 mmHg 74%
    10:00 +12°C° 0 mm 3 m/s 721 mmHg 67%
    11:00 +13°C° 0 mm 3 m/s 721 mmHg 60%
    12:00 +14°C° 0 mm 3 m/s 721 mmHg 53%
    13:00 +14°C° 0 mm 3 m/s 721 mmHg 51%
    14:00 +14°C° 0 mm 3 m/s 720 mmHg 48%
    15:00 +16°C° 0 mm 2 m/s 720 mmHg 46%
    16:00 +14°C° 0 mm 2 m/s 720 mmHg 51%
    17:00 +13°C° 0 mm 1 m/s 720 mmHg 56%
    18:00 +11°C° 0 mm 0 m/s 720 mmHg 62%
    19:00 +11°C° 0 mm 1 m/s 720 mmHg 60%
    20:00 +11°C° 0 mm 1 m/s 720 mmHg 58%
    21:00 +10°C° 0 mm 2 m/s 720 mmHg 55%
    22:00 +10°C° 0 mm 2 m/s 720 mmHg 55%
    23:00 +10°C° 0 mm 2 m/s 720 mmHg 55%

    27 Janvier, Dimanche

    Heure Température Précipitation Vent Pression Humidité
    00:00 +9°C° 0 mm 2 m/s 719 mmHg 55%
    01:00 +9°C° 0 mm 3 m/s 719 mmHg 55%
    02:00 +9°C° 0 mm 3 m/s 718 mmHg 56%
    03:00 +9°C° 0 mm 3 m/s 718 mmHg 56%
    04:00 +9°C° 0 mm 3 m/s 718 mmHg 56%
    05:00 +9°C° 0 mm 3 m/s 718 mmHg 56%
    06:00 +8°C° 0 mm 4 m/s 717 mmHg 57%
    07:00 +8°C° 0 mm 5 m/s 718 mmHg 61%
    08:00 +9°C° 0 mm 6 m/s 718 mmHg 66%
    09:00 +10°C° 0 mm 8 m/s 718 mmHg 70%
    10:00 +11°C° 0 mm 9 m/s 718 mmHg 69%
    11:00 +11°C° 0 mm 10 m/s 718 mmHg 68%
    12:00 +12°C° 0 mm 11 m/s 718 mmHg 67%
    13:00 +12°C° 0.1 mm 11 m/s 717 mmHg 68%
    14:00 +12°C° 0.1 mm 10 m/s 717 mmHg 69%
    15:00 +11°C° 0.1 mm 10 m/s 716 mmHg 70%
    16:00 +11°C° 0.1 mm 9 m/s 716 mmHg 75%
    17:00 +10°C° 0.1 mm 8 m/s 716 mmHg 80%
    18:00 +9°C° 0.1 mm 6 m/s 716 mmHg 85%
    19:00 +9°C° 0.3 mm 6 m/s 716 mmHg 85%
    20:00 +9°C° 0.3 mm 6 m/s 717 mmHg 86%
    21:00 +8°C° 0.3 mm 5 m/s 717 mmHg 86%
    22:00 +8°C° 0.6 mm 6 m/s 716 mmHg 85%
    23:00 +8°C° 0.6 mm 6 m/s 716 mmHg 83%

    28 Janvier, Lundi

    Heure Température Précipitation Vent Pression Humidité
    00:00 +8°C° 0.6 mm 7 m/s 716 mmHg 82%
    01:00 +7°C° 2 mm 6 m/s 716 mmHg 86%
    02:00 +7°C° 2 mm 6 m/s 715 mmHg 89%
    03:00 +6°C° 2 mm 5 m/s 715 mmHg 93%
    04:00 +6°C° 2.5 mm 4 m/s 715 mmHg 93%
    05:00 +7°C° 2.5 mm 3 m/s 715 mmHg 94%
    06:00 +6°C° 2.5 mm 2 m/s 714 mmHg 94%
    07:00 +5°C° 1.7 mm 3 m/s 715 mmHg 92%
    08:00 +5°C° 1.7 mm 3 m/s 715 mmHg 89%
    09:00 +5°C° 1.7 mm 4 m/s 716 mmHg 86%
    10:00 +5°C° 1.6 mm 4 m/s 716 mmHg 82%
    11:00 +5°C° 1.6 mm 5 m/s 716 mmHg 79%
    12:00 +5°C° 1.6 mm 5 m/s 716 mmHg 75%
    13:00 +5°C° 0.7 mm 5 m/s 716 mmHg 70%
    14:00 +5°C° 0.7 mm 6 m/s 716 mmHg 66%
    15:00 +5°C° 0.7 mm 6 m/s 716 mmHg 61%
    16:00 +4°C° 0.3 mm 6 m/s 717 mmHg 65%
    17:00 +5°C° 0.3 mm 5 m/s 717 mmHg 69%
    18:00 +3°C° 0.3 mm 5 m/s 717 mmHg 73%
    19:00 +3°C° 0.2 mm 5 m/s 717 mmHg 76%
    20:00 +2°C° 0.2 mm 5 m/s 718 mmHg 78%
    21:00 +2°C° 0.2 mm 5 m/s 718 mmHg 81%
    22:00 +2°C° 0.4 mm 5 m/s 718 mmHg 77%
    23:00 +2°C° 0.4 mm 6 m/s 718 mmHg 73%
    Voir plus